EW3867 Weather Reports


time (UTC)temp
C
wind
direction
speed
KPH
gust
KPH
rain 1hr
cm
rain 24hr
cm
rain mn
cm
humidity
%
barometer
mb
20260505221806 16 234 4.8 30.6 0.00 0.00 0.00 25 999.6
20260505220808 15 215 0.0 1.6 0.00 0.00 0.00 26 999.9
20260505215830 15 202 1.6 4.8 0.00 0.00 0.00 26 1000.1
20260505214802 15 251 6.4 20.9 0.00 0.00 0.00 26 1000.2
20260505213756 15 275 6.4 24.1 0.00 0.00 0.00 27 1000.3
20260505212752 15 217 4.8 24.1 0.00 0.00 0.00 27 1000.6
20260505211817 15 209 6.4 22.5 0.00 0.00 0.00 27 1000.9
20260505205621 16 263 1.6 19.3 0.00 0.00 0.00 25 1001.2
20260505204631 15 234 4.8 19.3 0.00 0.00 0.00 25 1001.3
20260505203643 16 0 6.4 25.7 0.00 0.00 0.00 23 1001.4
20260505202644 17 225 9.7 29.0 0.00 0.00 0.00 23 1001.5
20260505201651 16 227 6.4 29.0 0.00 0.00 0.00 24 1001.6
20260505200622 15 248 1.6 0.0 0.00 0.00 0.00 25 1001.8
20260505195559 15 0 9.7 25.7 0.00 0.00 0.00 25 1001.9
20260505194615 15 222 1.6 20.9 0.00 0.00 0.00 25 1001.9
20260505193612 16 228 11.3 27.4 0.00 0.00 0.00 24 1001.9
20260505192620 16 252 4.8 22.5 0.00 0.00 0.00 22 1001.9
20260505191637 16 0 6.4 22.5 0.00 0.00 0.00 23 1002.2
20260505190629 15 227 0.0 22.5 0.00 0.00 0.00 24 1002.2
20260505185649 15 0 4.8 14.5 0.00 0.00 0.00 24 1002.3
20260505184645 16 0 1.6 17.7 0.00 0.00 0.00 23 1002.4
20260505182517 15 173 4.8 17.7 0.00 0.00 0.00 24 1002.5
20260505181522 15 256 1.6 16.1 0.00 0.00 0.00 24 1002.7
20260505180504 15 242 0.0 12.9 0.00 0.00 0.00 24 1002.6
20260505174408 15 177 0.0 0.0 0.00 0.00 0.00 27 1002.6
20260505173417 14 215 0.0 14.5 0.00 0.00 0.00 27 1002.7
20260505172406 14 0 1.6 16.1 0.00 0.00 0.00 27 1002.7
20260505171420 13 244 4.8 19.3 0.00 0.00 0.00 28 1002.7
20260505170427 13 0 0.0 8.0 0.00 0.00 0.00 30 1002.9
20260505164347 12 0 0.0 12.9 0.00 0.00 0.00 30 1002.9
20260505162209 12 250 0.0 1.6 0.00 0.00 0.00 30 1003.2
20260505152855 11 0 0.0 0.0 0.00 0.00 0.00 33 1003.5
20260505150719 10 0 0.0 1.6 0.00 0.00 0.00 35 1003.4
20260505140608 8 0 0.0 11.3 0.00 0.00 0.00 39 1003.9
20260505123044 6 0 0.0 1.6 0.00 0.00 0.00 45 1004.5
20260505122045 6 0 0.0 0.0 0.00 0.00 0.00 44 1004.5
20260505115921 6 0 0.0 0.0 0.00 0.00 0.00 44 1004.4
20260505114859 6 0 0.0 0.0 0.00 0.00 0.00 43 1004.5
20260505113829 6 0 0.0 0.0 0.00 0.00 0.00 43 1004.6
20260505112823 6 0 0.0 0.0 0.00 0.00 0.00 42 1004.6
20260505110728 7 0 0.0 0.0 0.00 0.00 0.00 40 1004.4
20260505101632 7 0 0.0 0.0 0.00 0.00 0.00 35 1004.1
20260505100654 7 0 0.0 0.0 0.00 0.00 0.00 34 1003.8
20260505094507 6 0 0.0 0.0 0.00 0.00 0.00 35 1003.7
20260505093503 7 0 0.0 0.0 0.00 0.00 0.00 33 1003.6
20260505092444 8 0 0.0 0.0 0.00 0.00 0.00 33 1003.6
20260505091437 8 0 0.0 1.6 0.00 0.00 0.00 32 1003.7
20260505090421 8 0 0.0 0.0 0.00 0.00 0.00 32 1003.6
20260505085356 7 5 0.0 14.5 0.00 0.00 0.00 33 1003.5
20260505084409 7 28 0.0 0.0 0.00 0.00 0.00 33 1003.8
20260505083418 8 26 0.0 0.0 0.00 0.00 0.00 31 1003.7
20260505082343 9 0 0.0 0.0 0.00 0.00 0.00 30 1003.7
20260505081406 9 0 0.0 0.0 0.00 0.00 0.00 29 1003.6
20260505080339 10 0 0.0 0.0 0.00 0.00 0.00 29 1003.6
20260505075346 10 269 0.0 8.0 0.00 0.00 0.00 28 1003.8
20260505074324 10 272 0.0 1.6 0.00 0.00 0.00 28 1003.6
20260505071034 11 257 4.8 20.9 0.00 0.00 0.00 26 1003.7
20260505070003 11 234 4.8 17.7 0.00 0.00 0.00 25 1003.6
20260505064956 11 252 6.4 19.3 0.00 0.00 0.00 25 1003.7
20260505063928 11 226 6.4 22.5 0.00 0.00 0.00 24 1003.7
20260505062935 11 246 6.4 22.5 0.00 0.00 0.00 24 1003.6
20260505061942 11 240 6.4 22.5 0.00 0.00 0.00 24 1003.5
20260505060956 11 240 6.4 29.0 0.00 0.00 0.00 24 1003.5
20260505055940 12 238 14.5 29.0 0.00 0.00 0.00 24 1003.7
20260505054926 12 231 16.1 32.2 0.00 0.00 0.00 24 1003.7
20260505053924 11 231 16.1 32.2 0.00 0.00 0.00 24 1003.5
20260505052905 10 224 0.0 16.1 0.00 0.00 0.00 29 1003.5
20260505051850 8 217 0.0 0.0 0.00 0.00 0.00 33 1003.7
20260505041752 10 217 0.0 0.0 0.00 0.00 0.00 33 1003.0
20260505040719 10 217 0.0 0.0 0.00 0.00 0.00 31 1002.9
20260505035646 10 217 0.0 0.0 0.00 0.00 0.00 31 1002.8
20260505034647 10 217 0.0 0.0 0.00 0.00 0.00 31 1002.6
20260505033657 10 217 0.0 0.0 0.00 0.00 0.00 31 1002.5
20260505032649 11 217 0.0 0.0 0.00 0.00 0.00 31 1002.4
20260505031714 11 217 0.0 0.0 0.00 0.00 0.00 29 1002.1
20260505030711 12 217 0.0 0.0 0.00 0.00 0.00 28 1002.1
20260505025708 12 217 0.0 0.0 0.00 0.00 0.00 28 1002.0
20260505024718 12 217 0.0 0.0 0.00 0.00 0.00 28 1001.9
20260505023647 12 217 0.0 0.0 0.00 0.00 0.00 28 1001.9
20260505022632 13 217 0.0 0.0 0.00 0.00 0.00 27 1001.8
20260505015410 14 217 0.0 0.0 0.00 0.00 0.00 26 1001.5
20260505013251 15 271 0.0 0.0 0.00 0.00 0.00 24 1001.6
20260505012254 15 270 0.0 3.2 0.00 0.00 0.00 24 1001.5
20260505011228 16 271 0.0 1.6 0.00 0.00 0.00 24 1001.5
20260505005124 16 0 0.0 0.0 0.00 0.00 0.00 25 1001.8
20260505004128 16 262 0.0 1.6 0.00 0.00 0.00 24 1001.6
20260505003114 16 238 0.0 0.0 0.00 0.00 0.00 24 1001.6
20260505002127 16 244 0.0 8.0 0.00 0.00 0.00 24 1001.8
20260505000008 17 0 0.0 0.0 0.00 0.00 0.00 24 1001.9
20260504233900 17 210 0.0 12.9 0.00 0.00 0.00 23 1002.1
20260504232829 17 223 1.6 19.3 0.00 0.00 0.00 22 1002.4
20260504231827 17 209 4.8 19.3 0.00 0.00 0.00 22 1002.5
20260504230826 17 0 4.8 17.7 0.00 0.00 0.00 20 1002.4
20260504225823 17 0 4.8 17.7 0.00 0.00 0.00 20 1002.5
20260504224749 17 0 4.8 20.9 0.00 0.00 0.00 21 1002.5
20260504223727 17 250 0.0 0.0 0.00 0.00 0.00 21 1002.4
20260504222739 17 268 6.4 25.7 0.00 0.00 0.00 22 1002.2